Weather History for CXTD - December, 2012

Change the Weather History Date:

Monday, December 24, 2012

  Actual Average Record
Temperature  
Mean Temperature 26 °F -  
Max Temperature 31 °F - - ()
Min Temperature 19 °F - - ()
Degree Days  
Heating Degree Days 40    
Moisture  
Dew Point 17 °F    
Average Humidity 69    
Maximum Humidity 84    
Minimum Humidity 41    
Precipitation  
Precipitation 0.00 in - - ()
Sea Level Pressure  
Sea Level Pressure 29.73 in    
Wind  
Wind Speed 12 mph ()    
Max Wind Speed 21 mph    
Max Gust Speed 30 mph    
T = Trace of Precipitation, MM = Missing Value Source: Averaged Metar Reports

Daily Weather History Graph

Daily Weather History Graph

Search for Another Location

Airport or City:

Trip Planner

Search our weather history database for the weather conditions in past years. The results will help you decide how hot, cold, wet, or windy it might be!

Date:

Astronomy

Dec. 24, 2012 Rise Set
Actual Time 7:45 AM AST 4:27 PM AST
Civil Twilight 7:11 AM AST 5:01 PM AST
Nautical Twilight 6:33 AM AST 5:39 PM AST
Astronomical Twilight 5:57 AM AST 6:15 PM AST
Moon 1:55 PM AST (12/24) 4:15 AM AST (12/24)
Length of Visible Light 9h 50m
Length of Day
8h 41m
Waxing Gibbous, 88% of the Moon is Illuminated
Dec 24
Waxing Gibbous
Dec 28
Full
Jan 4
Last Quarter
Jan 11
New
Jan 18
First Quarter

Hourly Weather History & Observations

Time (AST) Temp. Windchill Dew Point Humidity Pressure Visibility Wind Dir Wind Speed Gust Speed Precip Events Conditions
12:00 AM 24.4 °F 13.5 °F 20.1 °F 84% 29.62 in - WSW 11.5 mph 17.3 mph N/A   Unknown
1:00 AM 25.0 °F 13.6 °F 19.0 °F 78% 29.63 in - WSW 12.7 mph - N/A   Unknown
2:00 AM 25 °F - 18 °F 67% 29.64 in - SW 12.7 mph - -  
2:00 AM 24.6 °F 13.2 °F 18.5 °F 78% 29.64 in - SW 12.7 mph 19.6 mph N/A   Unknown
3:00 AM 25.2 °F 15.7 °F 20.1 °F 81% 29.67 in - WSW 9.2 mph - N/A   Unknown
4:00 AM 25.5 °F 14.9 °F 20.3 °F 81% 29.68 in - WSW 11.5 mph 17.3 mph N/A   Unknown
5:00 AM 25.0 °F 16.3 °F 20.3 °F 82% 29.68 in - WSW 8.1 mph - N/A   Unknown
6:00 AM 26.2 °F 14.7 °F 20.1 °F 78% 29.69 in - SW 13.8 mph 21.9 mph N/A   Unknown
7:00 AM 26.1 °F 15.6 °F 20.1 °F 78% 29.71 in - SW 11.5 mph - N/A   Unknown
8:00 AM 26 °F - 20 °F 70% 29.73 in - SW 10.4 mph - -  
8:00 AM 25.5 °F 15.5 °F 20.1 °F 80% 29.73 in - SW 10.4 mph - N/A   Unknown
9:00 AM 26.8 °F 17.7 °F 21.0 °F 79% 29.74 in - SW 9.2 mph - N/A   Unknown
10:00 AM 29.1 °F 17.1 °F 21.7 °F 74% 29.74 in - WSW 17.3 mph 24.2 mph N/A   Unknown
11:00 AM 30.2 °F 19.8 °F 21.4 °F 70% 29.74 in - WSW 13.8 mph 26.5 mph N/A   Unknown
12:00 PM 30.0 °F 17.5 °F 19.0 °F 64% 29.73 in - West 19.6 mph 29.9 mph N/A   Unknown
1:00 PM 30.6 °F 19.0 °F 17.8 °F 59% 29.73 in - WSW 17.3 mph 26.5 mph N/A   Unknown
2:00 PM 30 °F - 15 °F 41% 29.73 in - WSW 16.1 mph - -  
2:00 PM 29.7 °F 18.2 °F 15.4 °F 55% 29.73 in - WSW 16.1 mph 26.5 mph N/A   Unknown
3:00 PM 28.2 °F 14.8 °F 13.3 °F 54% 29.73 in - WSW 20.7 mph 29.9 mph N/A   Unknown
4:00 PM 26.4 °F 13.2 °F 13.8 °F 59% 29.75 in - WSW 18.4 mph 29.9 mph N/A   Unknown
5:00 PM 24.4 °F 11.0 °F 12.6 °F 61% 29.77 in - WSW 17.3 mph 26.5 mph N/A   Unknown
6:00 PM 23.2 °F 10.8 °F 15.8 °F 73% 29.79 in - WSW 13.8 mph 21.9 mph N/A   Unknown
7:00 PM 22.8 °F 10.9 °F 15.3 °F 73% 29.81 in - WSW 12.7 mph 23.0 mph N/A   Unknown
8:00 PM 22 °F - 10 °F 47% 29.82 in - WSW 15.0 mph - -  
8:00 PM 21.9 °F 8.7 °F 10.2 °F 61% 29.82 in - WSW 15.0 mph 27.6 mph N/A   Unknown
9:00 PM 21.6 °F 8.2 °F 10.6 °F 63% 29.82 in - WSW 15.0 mph 23.0 mph N/A   Unknown
10:00 PM 20.8 °F 9.7 °F 10.0 °F 63% 29.86 in - West 10.4 mph - N/A   Unknown
11:00 PM 19.9 °F 7.3 °F 10.4 °F 67% 29.85 in - WSW 12.7 mph 20.7 mph N/A   Unknown